Location: Alumbaugh
(37.5976°N, 83.9299°W)
Time: 09:49:41
(UTC+00:00)

CUTE-I - Pass Details

Date: 04 April 2023
Orbit: 808 x 823 km, 98.7° (Epoch: 03 June)

Event Time Altitude Azimuth Distance (km) Brightness Sun altitude
Rises 10:21:35 0° 40° (NE) 3,362 ? -11.6°
Reaches altitude 10° 10:26:29 10° 80° (E) 2,423 ? -10.6°
Maximum altitude 10:27:24 10° 90° (E) 2,393 ? -10.4°
Drops below altitude 10° 10:28:19 10° 100° (E) 2,421 ? -10.3°
Sets 10:33:10 0° 139° (SE) 3,345 ? -9.3°
